Current Version              Previous Version:    01  02  03  04  05  06  07  08  09  10  11  12  13  14  15  16  17  18  19  20  21  22  23  24  25  26  27  28  29  30  
   31  32  33  34  35  36  37  38  39  40  41  42  43  44  45  46  47  48  49  50  51  52  53  54  55  56  57  58  59  60  

[Printable]
245
ASUS44 KEWX 232010
RWRTX
SOUTH TEXAS REGIONAL WEATHER ROUNDUP
NATIONAL WEATHER SERVICE AUSTIN/SAN ANTONIO TX
300 PM CDT THU OCT 23 2014

NOTE: "FAIR" INDICATED FEW OR NO CLOUDS BELOW 12,000 FEET WITH NO
SIGNIFICANT WEATHER AND/OR OBSTRUCTIONS TO VISIBILITY.

* - THESE STATIONS ARE NOT NWS OR FAA STATIONS...AND ARE NOT SUBJECT
    TO NWS AND FAA QUALITY CONTROL.

TXZ171-172-183>190-232100-
TEXAS HILL COUNTRY AND EDWARDS PLATEAU

CITY           SKY/WX    TMP DP  RH WIND       PRES   REMARKS
JUNCTION       MOSUNNY   77  60  55 VRB7      30.11F
*LLANO         NOT AVBL
BURNET         CLOUDY    78  60  53 SW5       30.12F
*HORSESHOE BAY CLOUDY    79  59  49 CALM      30.10F
*KERRVILLE     MOSUNNY   78  63  59 E3        30.12F
*FREDERICKSBRG CLOUDY    77  59  54 SW6       30.11F
*ROCKSPRINGS   PTSUNNY   75  61  60 S7        30.16F
*BOERNE STAGE  MOSUNNY   82  59  44 CALM      30.12F
*CASTROVILLE   SUNNY     85  54  34 SW3       30.09F
HONDO          MOSUNNY   78  58  49 VRB6      30.10F
*UVALDE        MOSUNNY   80  60  51 CALM      30.10F
DEL RIO        MOSUNNY   78  65  63 SE9       30.08F
LAUGHLIN AFB   PTSUNNY   77  65  66 S10       30.09F
CARRIZO SPRGS  CLOUDY    81  61  50 SW3       30.07F
$$

TXZ173-191>194-202-209-217>225-228-232100-
CENTRAL AND SOUTH CENTRAL TEXAS

CITY           SKY/WX    TMP DP  RH WIND       PRES   REMARKS
GEORGETOWN     NOT AVBL
AUSTIN/BERGSTM PTSUNNY   80  59  48 CALM      30.08F
AUSTIN/MABRY   MOSUNNY   81  59  47 SE6       30.09F
*AUSTIN/EXEC   SUNNY     81  57  44 N6        30.09F
*LAGO VISTA    MOSUNNY   78  59  50 S5        30.10F
SAN MARCOS     MOSUNNY   81  59  47 E5        30.09F
NEW BRAUNFELS  PTSUNNY   81  58  45 CALM      30.07F
RANDOLPH AFB   MOSUNNY   82  58  43 SE6       30.08F
PT SAN ANTONIO MOSUNNY   82  58  44 N2        30.07F
SAN ANTONIO    MOSUNNY   82  59  45 VRB3      30.08F
STINSON FIELD  PTSUNNY   83  58  42 VRB5      30.06F
*PLEASANTON    SUNNY     83  57  41 E3        30.08F
*LA GRANGE     SUNNY     80  60  50 N6        30.06F
*GIDDINGS      SUNNY     79  56  45 NE5       30.12S
*GONZALES      SUNNY     80  61  51 CALM      30.07F
$$

TXZ163>164-176>182-195>201-210>213-226-227-235-232100-
SOUTHEAST TEXAS

CITY           SKY/WX    TMP DP  RH WIND       PRES   REMARKS
COLLEGE STN    MOSUNNY   79  55  43 N6        30.09F
*BRYAN         PTSUNNY   78  57  48 CALM      30.10F
*CALDWELL      MOSUNNY   79  54  41 NE6       30.12F HAZE
*CROCKETT      SUNNY     75  57  53 NE3       30.13F
*BRENHAM       SUNNY     80  56  43 N3        30.09F
HUNTSVILLE     SUNNY     76  53  44 VRB6      30.09F
CONROE         SUNNY     77  52  41 CALM      30.08F
HOUSTON BUSH   MOSUNNY   79  54  41 NE13      30.07F
HOUSTON HOBBY  MOSUNNY   78  52  40 N8        30.06F
*HOUSTON SW AP MOSUNNY   73  51  47 NW9       30.07F
PEARLAND       MOSUNNY   79  51  37 NE10      30.07F
HOUSTON HOOKS  MOSUNNY   78  53  41 NE7       30.08F
ELLINGTON FLD  MOSUNNY   75  54  46 N6        30.07F
SUGAR LAND     MOSUNNY   79  55  43 NE8       30.06F
*HOUSTON EXEC  MOSUNNY   77 N/A N/A N10       30.08F
*CLEVELAND MUN MOSUNNY   77  58  51 E3        30.09F
*WHARTON       MOSUNNY   80  56  43 NE8       30.07F
*COLUMBUS      FAIR      78  58  50 CALM      30.07F
$$

TXZ214>216-236>238-232100-
THE UPPER TEXAS COAST

CITY           SKY/WX    TMP DP  RH WIND       PRES   REMARKS
*ORANGE        MOSUNNY   72  53  50 NE6       30.09F
PORT ARTHUR    MOSUNNY   77  54  44 VRB7      30.06F
GALVESTON      PTSUNNY   76  62  62 N8        30.07F
ANGLETON       PTSUNNY   77  57  50 N10       30.06F
*BAY CITY        N/A     79  60  53 NE3       30.06F
PALACIOS       MOSUNNY   80  59  48 VRB5      30.05F
$$

TXZ229>234-239>247-232100-
TEXAS COASTAL BEND AND RIO GRANDE PLAINS

CITY           SKY/WX    TMP DP  RH WIND       PRES   REMARKS
VICTORIA       MOSUNNY   81  57  43 VRB6      30.07F
*BEEVILLE      MOSUNNY   85  57  38 CALM      30.05F
ROCKPORT       SUNNY     81  63  54 E7        30.05F
*PORT ARANSAS  MOSUNNY   79  65  63 E9G16     30.05F
*PORT LAVACA   MOSUNNY   80  60  50 NE8       30.06F
*INGLESIDE     SUNNY     83  60  45 CALM      30.05F
CORPUS CHRISTI MOSUNNY   82  63  52 NE8       30.06F
CORPUS NAS     MOSUNNY   80  67  64 NE13      30.05F
*ROBSTOWN      LGT RAIN  83  63  51 E8        30.06F
ALICE          SUNNY     85  58  39 VRB3      30.05F
KINGSVILLE NAS PTSUNNY   85  62  46 E7        30.05F
COTULLA        MOSUNNY   86  59  39 NE8       30.07F
*FAITH RANCH   CLOUDY    82  59  44 NE6       30.09F
LAREDO         PTSUNNY   83  59  44 E7        30.09F
$$

TXZ248>255-232100-
DEEP SOUTH TEXAS

CITY           SKY/WX    TMP DP  RH WIND       PRES   REMARKS
BROWNSVILLE    MOSUNNY   83  67  58 N8        30.02F
PORT ISABEL    MOSUNNY   84  67  56 NE13      30.02F
*SOUTH PADRE   SUNNY     84  68  58 NE10      30.02F
HARLINGEN      MOSUNNY   85  67  54 NE13      30.02F
*HEBBRONVILLE  SUNNY     81  57  42 NE5       30.07F
MCALLEN        MOSUNNY   84  64  50 N7        30.04F
*WESLACO       MOSUNNY  N/A N/A N/A N7        30.03F
FALFURRIAS     SUNNY     83  63  51 N7        30.05F
EDINBURG       SUNNY     85  62  46 N5        30.04F
*ZAPATA        MOSUNNY   86  57  36 E7        30.04F
$$

TXZ213>215-236>238-242>244-246-247-251-254-255-232100-
CMAN STATIONS

STATION/POSITION TIME  TEMP    WIND        PRES    WAVE
                       AIR SEA DIR/SP/G            HT/PER
                 (UTC) (F)     (DEG/KT/KT) (MB)    (FT/S)
SABINE PASS      2000   73 73  360/  8/ 10 1018.2
SEA RIM ST PARK  2000   73      10/  5/  7 1018.5
NORTH JETTY/GLS  2000   73 76   90/  5/  6   N/A
EAGLE POINT      2000   71 75   60/  6/  8 1018.2
MORGANS POINT    2000   74     360/  3/  4 1018.0
MISSION/ARANSAS  1900          110/  9     1019.0
PORT O`CONNOR    2000           30/  4/  4   N/A
PORT ARANSAS     2000   75 78   40/ 10/ 11 1018.6
MALAQUITE BEACH  2000   76 78   20/ 11/ 13 1017.3
BAFFIN BAY       2000   77 83   40/  7/  9 1017.6
PORT ISABEL      2000   80 79   10/ 10/ 13 1016.8
$$

GMZ080-GMZ150>470-232100-
OFFSHORE BUOY REPORTS

STATION/POSITION TIME  TEMP    WIND        PRES    WAVE
                       AIR SEA DIR/SP/G            HT/PER
                 (UTC) (F)     (DEG/KT/KT) (MB)    (FT/S)
20 E GALVESTON   2000   72 78   40/  8/ 12 1017.6    3/ 7
90 E PT ARANSAS  2000   76 81   30/ 12/ 14 1017.5    4/ 8
35 NE PT MANSFLD 2000   78 81   30/  8/ 10 1016.6    5/ 8
200 E PT ISABEL  2000   78 81   40/ 14/ 17 1015.3    6/ 7
$$